Clearfield, PA

10:53 PM EST on February 13, 2016 (GMT -0500)
Clearfield-Lawrence

Weather History for KFIG - February, 2014

Change the Weather History Date:

Friday, February 7, 2014

  Actual Average (KDUJ) Record (KDUJ)
Temperature  
Mean Temperature 15 °F 25 °F  
Max Temperature 21 °F 33 °F 52 °F (2005)
Min Temperature 9 °F 17 °F -1 °F (2007)
Degree Days  
Heating Degree Days 50 40  
Month to date heating degree days 283  
Since 1 July heating degree days 4227  
Cooling Degree Days 0 0  
Month to date cooling degree days 0  
Year to date cooling degree days 0  
Moisture  
Dew Point 4 °F    
Average Humidity 64    
Maximum Humidity 81    
Minimum Humidity 38    
Precipitation  
Precipitation 0.00 in 0.08 in 0.74 in (1965)
Month to date precipitation 0.56  
Sea Level Pressure  
Sea Level Pressure 30.28 in    
Wind  
Wind Speed 11 mph (WSW)    
Max Wind Speed 18 mph    
Max Gust Speed 26 mph    
Visibility 9 miles    
Events Snow    
T = Trace of Precipitation, MM = Missing Value Source: NWS Daily Summary

Daily Weather History Graph

Daily Weather History Graph

Search for Another Location

Airport or City:

Trip Planner

Search our weather history database for the weather conditions in past years. The results will help you decide how hot, cold, wet, or windy it might be!

Date:

Astronomy

Feb. 07, 2014 Rise Set
Actual Time 7:17 AM EST 5:38 PM EST
Civil Twilight 6:49 AM EST 6:06 PM EST
Nautical Twilight 6:16 AM EST 6:39 PM EST
Astronomical Twilight 5:44 AM EST 7:11 PM EST
Moon 11:47 AM EST (2/7) 1:32 AM EST (2/7)
Length of Visible Light 11h 17m
Length of Day
10h 20m
First Quarter, 59% of the Moon is Illuminated
Feb 7
First Quarter
Feb 14
Full
Feb 22
Last Quarter
Mar 1
New
Mar 8
First Quarter

Hourly Weather History & Observations

Time (EST) Temp. Windchill Dew Point Humidity Pressure Visibility Wind Dir Wind Speed Gust Speed Precip Events Conditions
12:54 AM 18.0 °F 2.2 °F 10.0 °F 71% 30.26 in 8.0 mi WSW 18.4 mph 26.5 mph 0.00 in Snow Light Snow
1:42 AM 17.1 °F 4.3 °F 10.9 °F 77% 30.18 in 9.0 mi West 11.5 mph - 0.00 in   Overcast
1:54 AM 17.1 °F 5.8 °F 10.9 °F 77% 30.25 in 10.0 mi WSW 9.2 mph - 0.00 in   Overcast
2:54 AM 17.1 °F 5.8 °F 12.0 °F 81% 30.26 in 4.0 mi WSW 9.2 mph - 0.00 in Snow Light Snow
3:03 AM 17.1 °F 5.0 °F 12.0 °F 81% 30.19 in 3.0 mi WSW 10.4 mph - 0.00 in Snow Light Snow
3:24 AM 16.0 °F 5.3 °F 10.0 °F 77% 30.19 in 7.0 mi West 8.1 mph - 0.00 in Snow Light Snow
3:41 AM 16.0 °F 5.3 °F 10.0 °F 77% 30.19 in 10.0 mi WSW 8.1 mph 17.3 mph 0.00 in   Mostly Cloudy
3:49 AM 15.8 °F 5.1 °F 8.6 °F 73% 30.20 in 10.0 mi WSW 8.1 mph - 0.00 in   Mostly Cloudy
3:54 AM 16.0 °F 2.9 °F 9.0 °F 74% 30.27 in 10.0 mi WSW 11.5 mph - 0.00 in   Mostly Cloudy
4:54 AM 15.1 °F 4.2 °F 9.0 °F 77% 30.29 in 9.0 mi WSW 8.1 mph 17.3 mph 0.00 in   Overcast
5:54 AM 14.0 °F 0.5 °F 8.1 °F 77% 30.30 in 10.0 mi West 11.5 mph 18.4 mph 0.00 in   Mostly Cloudy
6:11 AM 14.0 °F 2.9 °F 8.1 °F 77% 30.22 in 10.0 mi WSW 8.1 mph - N/A   Partly Cloudy
6:54 AM 12.0 °F -1.3 °F 6.1 °F 77% 30.31 in 10.0 mi WSW 10.4 mph - N/A   Clear
7:54 AM 10.9 °F -2.6 °F 3.0 °F 70% 30.34 in 10.0 mi WSW 10.4 mph - N/A   Clear
8:54 AM 10.9 °F -2.6 °F 3.0 °F 70% 30.35 in 10.0 mi WSW 10.4 mph - N/A   Clear
9:54 AM 12.9 °F 1.6 °F 3.0 °F 65% 30.36 in 10.0 mi WSW 8.1 mph - N/A   Clear
10:54 AM - - - N/A% 30.26 in - North - - N/A   Unknown
1:54 PM 21.0 °F 7.1 °F 1.9 °F 44% 30.28 in 10.0 mi West 16.1 mph 26.5 mph N/A   Unknown
2:54 PM 21.0 °F 9.9 °F 1.9 °F 44% 30.28 in 10.0 mi WSW 10.4 mph - N/A   Mostly Cloudy
3:54 PM 21.0 °F 9.3 °F -0.9 °F 38% 30.30 in 10.0 mi WSW 11.5 mph 20.7 mph N/A   Mostly Cloudy
4:54 PM 19.0 °F 7.5 °F -2.0 °F 40% 30.31 in 10.0 mi WSW 10.4 mph - N/A   Scattered Clouds
5:54 PM 17.1 °F 3.6 °F -2.9 °F 41% 30.34 in 10.0 mi West 12.7 mph 18.4 mph N/A   Clear
6:54 PM 15.1 °F 5.2 °F -2.9 °F 45% 30.35 in 10.0 mi WSW 6.9 mph - N/A   Clear
7:54 PM 15.1 °F 1.8 °F -2.9 °F 45% 30.35 in 10.0 mi West 11.5 mph 17.3 mph N/A   Clear
8:54 PM 12.9 °F 0.7 °F -2.9 °F 49% 30.35 in 10.0 mi West 9.2 mph - N/A   Clear
9:54 PM 10.9 °F 2.9 °F -2.9 °F 54% 30.35 in 10.0 mi WSW 4.6 mph - N/A   Clear
10:54 PM 9.0 °F -0.9 °F -2.9 °F 59% 30.35 in 10.0 mi SSW 5.8 mph - N/A   Clear
11:54 PM 9.0 °F 2.4 °F -2.9 °F 59% 30.24 in 10.0 mi SW 3.5 mph - N/A   Clear